Regional Weather Roundup
Issued by NWS Sioux Falls, SD

Home | Current Version | Previous Version | Graphics & Text | Print | Product List | Glossary Off
Versions: 1 2 3 4 5 6 7 8 9 10 11 12 13 14 15 16 17 18 19 20 21 22 23 24 25 26 27 28 29 30 31 32 33 34 35 36 37 38 39 40 41 42 43 44 45 46 47 48 49 50

000
ASUS43 KFSD 271302
RWRFSD

WEATHER ROUNDUP FOR SE SOUTH DAKOTA/SW MINNESOTA/NW IOWA
NATIONAL WEATHER SERVICE SIOUX FALLS SD
700 AM CST MON FEB 27 2017

NOTE: "FAIR" INDICATES FEW OR NO CLOUDS BELOW 12,000 FEET WITH NO
SIGNIFICANT WEATHER AND OR OBSTRUCTIONS TO VISIBILITY.


SDZ038>040-050-052>070-271400-
SOUTHEAST SOUTH DAKOTA

CITY           SKY/WX    TMP DP  RH WIND       PRES   REMARKS
BROOKINGS      CLEAR     19  16  88 SE7       29.85S WCI  10
CHAMBERLAIN    CLOUDY    20  16  83 CALM      29.81F
HURON          CLOUDY    20  17  88 S7        29.85R WCI  11
MADISON        FAIR      19  19 100 S8        29.85S WCI   9
MITCHELL       CLOUDY    23  16  74 S7        29.88R WCI  15
SIOUX FALLS    PTCLDY    23  19  85 S6        29.89F WCI  16
WINNER         FAIR      20  11  68 SE5       29.78F WCI  13
YANKTON        CLOUDY    18  14  86 CALM      29.90F
$$

MNZ071-072-080-081-089-090-097-098-271400-
SOUTHWEST MINNESOTA

CITY           SKY/WX    TMP DP  RH WIND       PRES   REMARKS
FAIRMONT       CLEAR     18  13  80 S10       29.96S WCI   6
JACKSON        CLEAR     25  19  80 S9        29.94R WCI  15
LUVERNE        CLEAR     21  18  86 S3        29.91S
MARSHALL       CLEAR     26  20  77 SW13      29.88R WCI  15
MONTEVIDEO     CLEAR     23  19  86 CALM      29.90R
PIPESTONE      CLEAR     23  18  80 S6        29.88S WCI  16
REDWOOD FALLS  CLEAR     23  18  81 S5        29.91R WCI  17
TRACY          CLEAR     28  23  81 SW15      29.89R WCI  17
WINDOM         PTCLDY    27  21  80 S8        29.92S WCI  18
WORTHINGTON    CLEAR     24  20  84 S14       29.91F WCI  12
$$

IAZ001>003-012>014-020>022-031-032-NEZ013-014-SDZ071-271400-
NORTHWEST IOWA

CITY           SKY/WX    TMP DP  RH WIND       PRES   REMARKS
CHEROKEE       CLEAR      9   7  92 CALM      29.96R
DENISON        CLEAR     18  16  93 CALM      29.95S
ESTHERVILLE    CLEAR     14  13  95 S9        29.94F WCI   2
LE MARS        CLEAR     21  18  86 S7        29.95S WCI  13
SHELDON        CLEAR     19  19 100 SE6       29.92R WCI  11
SIOUX CITY     CLOUDY    16  13  88 E10       29.95F WCI   4
SPENCER        CLEAR     16  12  84 CALM      29.94F
STORM LAKE     CLEAR     21  16  79 S14       29.95S WCI   8
$$

ABBREVIATIONS USED IN REMARKS
   TC - TEMPERATURE IN CELSIUS
  WCI - WIND CHILL INDEX
   HX - HEAT INDEX
  VSB - VISIBILITY




USA.gov is the U.S. government's official web portal to all federal, state and local government web resources and services.